Location: Peach Mountain Observatory
(42.3967°N, 83.9367°W)
Time: 18:33:11
(UTC-05:00)

Explorer 7 - Visible Passes

Search period start: 24 January 2020 00:00
Search period end: 03 February 2020 00:00
Orbit: 485 x 679 km, 50.3° (Epoch: 24 January)

Date Brightness Start Highest point End Pass type
(mag) Time Alt. Az. Time Alt. Az. Time Alt. Az.
24 Jan 9.3 05:02:54 19° ESE 05:02:54 19° ESE 05:04:14 10° ESE visible
24 Jan 8.2 06:39:15 19° WSW 06:40:22 22° SW 06:43:36 10° S visible
25 Jan 9.3 05:08:02 18° SE 05:08:02 18° SE 05:09:10 10° SE visible
25 Jan 8.8 06:44:22 13° WSW 06:45:06 13° SW 06:47:04 10° SSW visible
26 Jan 9.4 05:13:14 14° SSE 05:13:14 14° SSE 05:13:53 10° SE visible
30 Jan 9.1 19:28:48 10° SSE 19:29:07 11° SSE 19:29:07 11° SSE visible
31 Jan 8.4 19:32:20 10° S 19:34:27 20° SSE 19:34:27 20° SSE visible
01 Feb 7.6 19:36:32 10° SSW 19:39:43 34° SSE 19:39:43 34° SSE visible
02 Feb 6.8 19:41:07 10° SW 19:44:54 58° SSE 19:44:54 58° SSE visible
